Location: Newark
(47.4333°N, 19.2500°E)
Time: 12:34:12
(UTC+00:00)

N. Korean satellite - Visible Passes

Search period start: 28 February 2021 00:00
Search period end: 10 March 2021 00:00
Orbit: 451 x 503 km, 97.2° (Epoch: 27 February)

Date Brightness Start Highest point End Pass type
(mag) Time Alt. Az. Time Alt. Az. Time Alt. Az.
28 Feb 8.6 03:38:33 10° NE 03:41:39 29° E 03:44:45 10° SSE visible
01 Mar 9.7 03:12:40 10° NE 03:14:44 15° E 03:16:48 10° SE visible
01 Mar 6.9 04:44:55 10° N 04:48:14 40° WNW 04:51:34 10° SW visible
02 Mar 6.5 04:18:01 10° NNE 04:21:33 88° WNW 04:25:07 10° SSW visible
03 Mar 7.9 03:51:25 10° NNE 03:54:47 42° E 03:58:11 10° S visible
04 Mar 9.3 03:25:10 10° NE 03:27:55 21° E 03:30:40 10° SE visible
05 Mar 10.1 03:00:10 10° ENE 03:00:56 11° E 03:01:42 10° ESE visible
05 Mar 6.5 04:31:06 10° N 04:34:36 60° WNW 04:38:07 10° SSW visible
06 Mar 7.1 04:04:20 10° NNE 04:07:51 62° E 04:11:25 10° S visible
07 Mar 8.7 03:37:52 10° NE 03:41:01 29° E 03:44:12 10° SSE visible
08 Mar 9.8 03:11:57 10° NE 03:14:05 15° E 03:16:14 10° SE visible
09 Mar 6.5 04:17:17 10° NNE 04:20:52 89° WNW 04:24:30 10° SSW visible
